Clermont County, Batavia, OH

6:22 AM EDT on April 27, 2017 (GMT -0400)
Clermont County, Batavia

Weather History for KI69 - September, 2013

Change the Weather History Date:

Monday, September 9, 2013

  Actual Average (KLUK) Record (KLUK)
Temperature  
Mean Temperature 78 °F -  
Max Temperature 89 °F 82 °F 98 °F (1964)
Min Temperature 68 °F 61 °F 33 °F (1996)
Cooling Degree Days 14    
Growing Degree Days 28 (Base 50)    
Moisture  
Dew Point 68 °F    
Average Humidity 72    
Maximum Humidity 100    
Minimum Humidity 43    
Precipitation  
Precipitation 0.00 in - - ()
Sea Level Pressure  
Sea Level Pressure 30.03 in    
Wind  
Wind Speed 2 mph ()    
Max Wind Speed 10 mph    
Max Gust Speed 20 mph    
Visibility 8.2 miles    
Events      
Averages and records for this station are not official NWS values.
T = Trace of Precipitation, MM = Missing Value Source: Averaged Metar Reports

Daily Weather History Graph

Daily Weather History Graph

Search for Another Location

Airport or City:

Trip Planner

Search our weather history database for the weather conditions in past years. The results will help you decide how hot, cold, wet, or windy it might be!

Date:

Astronomy

Sep. 09, 2013 Rise Set
Actual Time 7:13 AM EDT 7:54 PM EDT
Civil Twilight 6:45 AM EDT 8:21 PM EDT
Nautical Twilight 6:14 AM EDT 8:53 PM EDT
Astronomical Twilight 5:41 AM EDT 9:25 PM EDT
Moon 11:31 AM EDT (9/9) 10:12 PM EDT (9/9)
Length of Visible Light 13h 35m
Length of Day
12h 41m
Waxing Crescent, 19% of the Moon is Illuminated
Sep 9
Waxing Crescent
Sep 12
First Quarter
Sep 19
Full
Sep 26
Last Quarter
Oct 4
New

Hourly Weather History & Observations

Time (EDT) Temp. Heat Index Dew Point Humidity Pressure Visibility Wind Dir Wind Speed Gust Speed Precip Events Conditions
12:14 AM 73.4 °F - 68.0 °F 83% 30.02 in 10.0 mi Calm Calm - N/A   Clear
12:34 AM 71.6 °F - 68.0 °F 88% 30.02 in 10.0 mi Calm Calm - N/A   Clear
12:53 AM 71.6 °F - 68.0 °F 88% 30.03 in 10.0 mi Calm Calm - N/A   Clear
1:14 AM 71.6 °F - 68.0 °F 88% 30.03 in 10.0 mi Calm Calm - N/A   Clear
1:34 AM 71.6 °F - 68.0 °F 88% 30.03 in 7.0 mi Calm Calm - N/A   Clear
1:53 AM 69.8 °F - 68.0 °F 94% 30.03 in 7.0 mi Calm Calm - N/A   Clear
2:14 AM 69.8 °F - 68.0 °F 94% 30.03 in 7.0 mi Calm Calm - N/A   Clear
2:34 AM 71.6 °F - 69.8 °F 94% 30.02 in 7.0 mi ESE 3.5 mph - N/A   Clear
2:53 AM 69.8 °F - 69.8 °F 100% 30.02 in 7.0 mi Calm Calm - N/A   Clear
3:14 AM 69.8 °F - 68.0 °F 94% 30.02 in 5.0 mi Calm Calm - N/A   Clear
3:34 AM 68.0 °F - 68.0 °F 100% 30.03 in 3.0 mi Calm Calm - N/A   Clear
3:54 AM 68.0 °F - 68.0 °F 100% 30.03 in 3.0 mi Calm Calm - N/A   Clear
4:14 AM 69.8 °F - 68.0 °F 94% 30.03 in 5.0 mi Calm Calm - N/A   Clear
4:33 AM 68.0 °F - 68.0 °F 100% 30.03 in 4.0 mi ESE 3.5 mph - N/A   Clear
4:54 AM 69.8 °F - 68.0 °F 94% 30.03 in 4.0 mi Calm Calm - N/A   Clear
5:14 AM 68.0 °F - 68.0 °F 100% 30.03 in 3.0 mi Calm Calm - N/A   Clear
5:33 AM 69.8 °F - 68.0 °F 94% 30.03 in 3.0 mi Calm Calm - N/A   Clear
5:54 AM 68.0 °F - 68.0 °F 100% 30.03 in 2.0 mi Calm Calm - N/A   Clear
6:14 AM 69.8 °F - 68.0 °F 94% 30.03 in 3.0 mi South 3.5 mph - N/A   Clear
6:33 AM 69.8 °F - 69.8 °F 100% 30.03 in 4.0 mi Calm Calm - N/A   Clear
6:54 AM 69.8 °F - 69.8 °F 100% 30.03 in 3.0 mi Calm Calm - N/A   Clear
7:14 AM 69.8 °F - 68.0 °F 94% 30.03 in 4.0 mi Calm Calm - N/A   Clear
7:33 AM 69.8 °F - 69.8 °F 100% 30.03 in 3.0 mi Calm Calm - N/A   Clear
7:54 AM 69.8 °F - 69.8 °F 100% 30.04 in 2.5 mi Calm Calm - N/A   Clear
8:14 AM 69.8 °F - 69.8 °F 100% 30.04 in 4.0 mi Calm Calm - N/A   Clear
8:33 AM 71.6 °F - 71.6 °F 100% 30.05 in 5.0 mi Calm Calm - N/A   Clear
8:54 AM 71.6 °F - 71.6 °F 100% 30.05 in 7.0 mi Calm Calm - N/A   Clear
9:14 AM 73.4 °F - 71.6 °F 94% 30.05 in 10.0 mi Calm Calm - N/A   Clear
9:33 AM 77.0 °F - 71.6 °F 83% 30.05 in 10.0 mi Calm Calm - N/A   Clear
9:54 AM 78.8 °F - 69.8 °F 74% 30.06 in 10.0 mi Calm Calm - N/A   Clear
10:14 AM 80.6 °F 83.9 °F 69.8 °F 70% 30.07 in 10.0 mi SSW 3.5 mph - N/A   Clear
10:33 AM 80.6 °F 83.9 °F 69.8 °F 70% 30.07 in 10.0 mi South 4.6 mph - N/A   Clear
10:54 AM 82.4 °F 85.4 °F 68.0 °F 62% 30.07 in 10.0 mi SSW 5.8 mph - N/A   Clear
11:14 AM 82.4 °F 85.4 °F 68.0 °F 62% 30.07 in 10.0 mi South 6.9 mph - N/A   Clear
11:33 AM 82.4 °F 85.4 °F 68.0 °F 62% 30.07 in 10.0 mi SSW 8.1 mph - N/A   Clear
11:54 AM 86.0 °F 89.4 °F 68.0 °F 55% 30.07 in 10.0 mi SSW 8.1 mph - N/A   Clear
12:14 PM 86.0 °F 89.4 °F 68.0 °F 55% 30.06 in 10.0 mi SW 5.8 mph - N/A   Clear
12:33 PM 86.0 °F 89.4 °F 68.0 °F 55% 30.06 in 10.0 mi SW 5.8 mph - N/A   Mostly Cloudy
12:54 PM 86.0 °F 89.4 °F 68.0 °F 55% 30.06 in 10.0 mi SW 9.2 mph - N/A   Mostly Cloudy
1:14 PM 87.8 °F 91.4 °F 68.0 °F 52% 30.05 in 10.0 mi WSW 6.9 mph - N/A   Scattered Clouds
1:33 PM 87.8 °F 91.4 °F 68.0 °F 52% 30.05 in 10.0 mi SW 6.9 mph - N/A   Scattered Clouds
1:54 PM 86.0 °F 89.4 °F 68.0 °F 55% 30.05 in 10.0 mi SW 5.8 mph - N/A   Mostly Cloudy
2:14 PM 89.6 °F 93.4 °F 68.0 °F 49% 30.04 in 10.0 mi WSW 6.9 mph - N/A   Scattered Clouds
2:33 PM 87.8 °F 90.4 °F 66.2 °F 49% 30.03 in 10.0 mi SW 8.1 mph - N/A   Scattered Clouds
2:54 PM 89.6 °F 93.4 °F 68.0 °F 49% 30.03 in 10.0 mi SW 4.6 mph - N/A   Mostly Cloudy
3:14 PM 89.6 °F 91.1 °F 64.4 °F 43% 30.02 in 10.0 mi SW 8.1 mph 16.1 mph N/A   Scattered Clouds
3:33 PM 89.6 °F 91.1 °F 64.4 °F 43% 30.01 in 10.0 mi SW 10.4 mph 16.1 mph N/A   Scattered Clouds
3:54 PM 89.6 °F 91.1 °F 64.4 °F 43% 30.00 in 10.0 mi SSW 8.1 mph - N/A   Scattered Clouds
4:14 PM 89.6 °F 91.1 °F 64.4 °F 43% 30.00 in 10.0 mi WSW 9.2 mph - N/A   Scattered Clouds
4:33 PM 89.6 °F 91.1 °F 64.4 °F 43% 30.00 in 10.0 mi SSW 10.4 mph 19.6 mph N/A   Scattered Clouds
4:54 PM 89.6 °F 91.1 °F 64.4 °F 43% 30.00 in 10.0 mi SSW 6.9 mph - N/A   Scattered Clouds
5:14 PM 89.6 °F 91.1 °F 64.4 °F 43% 30.00 in 10.0 mi SW 9.2 mph - N/A   Mostly Cloudy
5:33 PM 89.6 °F 91.1 °F 64.4 °F 43% 29.99 in 10.0 mi SW 8.1 mph - N/A   Scattered Clouds
5:54 PM 89.6 °F 92.2 °F 66.2 °F 46% 30.00 in 10.0 mi SW 6.9 mph - N/A   Scattered Clouds
6:14 PM 89.6 °F 92.2 °F 66.2 °F 46% 30.00 in 10.0 mi SW 6.9 mph - N/A   Scattered Clouds
6:33 PM 87.8 °F 90.4 °F 66.2 °F 49% 30.00 in 10.0 mi SSW 5.8 mph - N/A   Clear
6:54 PM 87.8 °F 90.4 °F 66.2 °F 49% 30.00 in 10.0 mi SSW 5.8 mph - N/A   Clear
7:14 PM 86.0 °F 89.4 °F 68.0 °F 55% 30.00 in 10.0 mi SSW 3.5 mph - N/A   Clear
7:33 PM 86.0 °F 89.4 °F 68.0 °F 55% 30.00 in 10.0 mi SSW 5.8 mph - N/A   Clear
7:54 PM 84.2 °F 87.3 °F 68.0 °F 58% 30.01 in 10.0 mi SSW 4.6 mph - N/A   Clear
8:14 PM 82.4 °F 85.4 °F 68.0 °F 62% 30.02 in 10.0 mi SSW 3.5 mph - N/A   Clear
8:33 PM 82.4 °F 85.4 °F 68.0 °F 62% 30.02 in 10.0 mi SSW 4.6 mph - N/A   Clear
8:54 PM 82.4 °F 85.4 °F 68.0 °F 62% 30.02 in 10.0 mi SSW 4.6 mph - N/A   Clear
9:14 PM 80.6 °F 83.2 °F 68.0 °F 65% 30.03 in 10.0 mi SSW 5.8 mph - N/A   Clear
9:34 PM 80.6 °F 83.2 °F 68.0 °F 65% 30.03 in 10.0 mi SW 4.6 mph - N/A   Clear
9:54 PM 80.6 °F 83.2 °F 68.0 °F 65% 30.04 in 10.0 mi SSW 4.6 mph - N/A   Clear
10:14 PM 80.6 °F 83.2 °F 68.0 °F 65% 30.04 in 10.0 mi SSW 4.6 mph - N/A   Clear
10:33 PM 78.8 °F - 68.0 °F 69% 30.04 in 10.0 mi SSW 4.6 mph - N/A   Clear
10:54 PM 78.8 °F - 68.0 °F 69% 30.05 in 10.0 mi SSW 4.6 mph - N/A   Mostly Cloudy
11:14 PM 78.8 °F - 68.0 °F 69% 30.05 in 10.0 mi SW 3.5 mph - N/A   Overcast
11:33 PM 78.8 °F - 68.0 °F 69% 30.05 in 10.0 mi SSW 3.5 mph - N/A   Scattered Clouds
11:54 PM 78.8 °F - 68.0 °F 69% 30.05 in 10.0 mi SSW 4.6 mph - N/A   Scattered Clouds